Rbgn^[z[y[W
メイン
   新天体発見情報
     Comet C/2025 L2
投稿するにはまず登録を

スレッド表示 | 古いものから 前のトピック | 次のトピック | 下へ
投稿者 スレッド
佐藤裕久
投稿日時: 2025-6-14 21:43
モデレータ
登録日: 2005-6-12
居住地: 日本
投稿: 2676
オンライン
Comet C/2025 L2

Alain Maury (San Pedro de Atacama, チリ)の通報によると、6月2日、Jean Marc Mari (Biot, フラ
ンス)と Florian Signoret (Valbonne, フランス)が、彼らのチーム (G. AttardとD. Parrottも参加)
が、MAPSプロジェクト(チームメンバーの姓の頭文字から名付けられた)の一環として、Celestron 
0.28-m Schmidtアストログラフ (+ zwo6200MM カメラ)で得た観測画像から彗星を発見した。
この画像は、各領域ごとに36枚の30-秒露出で自動的に取得された。チームメンバーは、Tycho Tracker
で検出された天体のダウンロードされた画像を確認した。 
Mauryは、類似の明るさの恒星(半値全幅:FWHM)と比較して、6"(FWHM)の拡散したコマと、p.a.240°に
10"の広い尾を測定した。確認画像には、中心部周辺に"ぼやけ"があり、扇形の短い尾が確認された。 
小惑星センターのPCCP webpageに公表後、佐藤英貴氏(東京都文京区)は、6月11.35日UT、チリ Rio 
Hurtadoにある0.51-m f/6.8 アストログラフの遠隔操作で得た、60-秒CCD露出20枚のスタックから、
強く集光した7"のコマが見え、p.a. 260°に向かって8"の尾がある、3".6の円形範囲で測定した光度は
19.2等であった。

彗星機能の報告は次のとおり、

OC   Date        Reporter            Coma    Tail   PA   Comet     Date
                                                        (T/P)   Reported
W94  2025-06-02  A. Maury            6"       10"  240    T   2025-06-03.45
N56  2025-06-03  J. Camarasa T Chen 10"                   T   2025-06-03.95
807  2025-06-04  T. Linder           5"        3"  170    T   2025-06-04.57
O40  2025-06-04  J. Xiong            8"        5"  20     P   2025-06-05.50
094  2025-06-05  A. Novichonok       6"                   T   2025-06-06.90
X07  2025-06-11  H. Sato             7"        8"  260    T   2025-06-11.41

発見位置は次のとおり(PCCP 5F12I21)、

     2025 UT             R.A. (2000) Decl.       Mag.
     June  2.30725   22 17 51.90   -12 32 00.7   18.7
           2.31351   22 17 51.92   -12 32 05.6   18.8
           2.31975   22 17 52.05   -12 32 10.3   19.3
           2.36749   22 17 52.89   -12 32 46.4   19.4
           2.37289   22 17 53.00   -12 32 50.3   19.5
           2.37829   22 17 53.10   -12 32 54.2   19.3
           2.39388   22 17 53.28   -12 33 06.6   19.5
           2.39928   22 17 53.42   -12 33 09.9   19.3
           2.40464   22 17 53.47   -12 33 14.0   19.4

MPCの双曲線軌道要素は次のとおり、

Orbital elements:
    C/2025 L2                                                                   
Epoch 2025 May 5.0 TT = JDT 2460800.5                                           
T 2025 Dec. 19.98151 TT                                 Pike                    
q   2.8346088            (2000.0)            P               Q                  
z  -0.0053216      Peri.  232.62821     +0.46161474     -0.53769475             
 +/-0.0046414      Node   135.03239     -0.04841527     +0.77890153             
e   1.0150846      Incl.   86.71639     -0.88575832     -0.32279523             
From 63 observations 2025 June 2-11, mean residual 0".8.                        
                                                                                
Ephemeris:
Date    TT    R. A. (2000) Decl.     Delta      r    Elong.  Phase   m1
2025 05 12    22 08 33.8 -08 58 46   3.6398  3.6090    80.3    16.0  20.1
...
2025 05 27    22 15 41.3 -11 17 40   3.3040  3.5208    93.9    16.7  19.8
...
2025 06 04    22 18 21.0 -12 53 49   3.1275  3.4751   101.5    16.6  19.6
...
2025 06 10    22 19 43.5 -14 17 53   2.9985  3.4415   107.4    16.3  19.5
2025 06 11    22 19 53.8 -14 32 58   2.9774  3.4360   108.4    16.3  19.4
2025 06 12    22 20 03.1 -14 48 22   2.9565  3.4304   109.4    16.2  19.4
...
2025 06 18    22 20 36.4 -16 27 42   2.8336  3.3976   115.5    15.7  19.3
...
2025 06 26    22 20 14.1 -18 59 35   2.6796  3.3549   123.9    14.6  19.1
...
2025 07 11    22 15 30.5 -24 45 51   2.4336  3.2779   140.0    11.5  18.8

(MPEC 2025-L62、CBET 5567)

スレッド表示 | 古いものから 前のトピック | 次のトピック | トップ

投稿するにはまず登録を
 
© 1999 Tsutomu Seki.